STARLINK-37387, 68973

Orbit data source: Space-Track

STARLINK-37387, 68973 is a payload satellite owned by SpaceX/Seattle (US) in LEO that was launched on Fri, 01 May 2026 UTC via an FALCON 9 launch vehicle from the Air Force Eastern Test Range (AFETR). Payload-class satellites include a variety of spacecraft equipped with specific instruments for various scientific and technological missions. These include communications satellites like Starlink; space stations such as the ISS; scientific satellites like the Hubble; Earth observation satellites from companies like Planet Labs, Umbra, and HawkEye 360; GPS; miniature CubeSats for education and research; and military/defense satellites.

Loading next visibility...
Identifier
68973, 2026-099Y
Orbit
LEO
Country
Flag of USUS
Related business
Manufacturer
SpaceX/Seattle
Mission
Operational spacecraft
Bus & Motor
STARLINK V2MO, Unknown motor
Mass
575 kg wet, ~530 kg dry
Launch date (UTC)
2026-05-01 (2 months ago)
Launch vehicle
FALCON 9
Launch site
Air Force Eastern Test Range (AFETR)
Object type
Payload
Rocket body
Debris
Shape & HBR
Unknown shape, 14.5 m
Radar Cross Section
Large (>1 m²)

Expand to show TLE details & history
Last TLE update: 16 hours ago

TLE from 16 hours ago
0 STARLINK-37387
1 68973U 26099Y   26171.22592935  .00015238  00000-0  44648-3 0  9991
2 68973  53.1596 146.7615 0001533  83.4669 276.6508 15.35426483  7745
Epoch: 2026-06-20T05:25Z
TLE epoch observation values (Epoch: 2026-06-20T05:25:20.295Z)
Latitude
-0.00008°
Longitude
156.98328°
Altitude
460.434 km
Speed
7.638 km/s
True Right ascension
09h 47m 02s
True Declination
0° 00' 00"
Sunlit
Object was in daylight at epoch
Visualization orbit readout
Latitude
Unknown
Longitude
Unknown
Altitude
Unknown
Speed
Unknown
Apparent Right ascension
Unknown
Apparent Declination
Unknown
Sunlit
N/A
Visualization observer readout
Local Sidereal Time
08:32:51
Azimuth
Unknown
Elevation
Unknown
Doppler factor
Unknown
Orbital elements
Apogee altitude
460.959 km
Perigee altitude
458.863 km
Semi-major axis
6,838.048 km
Eccentricity
0.00015
Inclination
53.1596°
RAAN
146.7615°
Arg. of periapsis
83.4669°
True anomaly
276.63335°
Mean anomaly
276.6508°
Eccentric anomaly
276.64208°
Mean motion
3.83835 °/min
Orbital period
93.79 mins
BSTAR
0.00044648
Loading maneuver chart data...
Computing Atmospheric mass density...
Loading historical data...
Loading historical data...
Loading historical data...
Loading historical data...
Loading historical data...
Loading historical data...
Loading historical data...

Documentation

Showing up to 5 results
|